CW5430 Weather Reports


time (UTC)temp
C
wind
direction
speed
KPH
gust
KPH
rain 1hr
cm
rain 24hr
cm
rain mn
cm
humidity
%
barometer
mb
20260505125007 19 296 0.0 12.9 0.00 0.00 0.00 60 1011.6
20260505124528 19 225 1.6 12.9 0.00 0.00 0.00 59 1011.6
20260505124011 19 153 1.6 8.0 0.00 0.00 0.00 59 1011.4
20260505123511 18 295 1.6 8.0 0.00 0.00 0.00 59 1011.5
20260505123044 18 226 3.2 4.8 0.00 0.00 0.00 60 1011.4
20260505122508 18 269 1.6 4.8 0.00 0.00 0.00 62 1011.4
20260505122009 18 242 1.6 12.9 0.00 0.00 0.00 62 1011.3
20260505121526 17 140 3.2 12.9 0.00 0.00 0.00 63 1011.3
20260505121007 17 219 0.0 9.7 0.00 0.00 0.00 1011.3
20260505120515 17 246 1.6 9.7 0.00 0.00 0.00 67 1011.3
20260505120037 16 205 1.6 8.0 0.00 0.00 0.00 67 1011.3
20260505115512 16 252 1.6 8.0 0.00 0.00 0.00 67 1011.4
20260505115016 16 230 1.6 6.4 0.00 0.00 0.00 68 1011.3
20260505114533 16 269 0.0 6.4 0.00 0.00 0.00 69 1011.4
20260505114009 16 235 1.6 4.8 0.00 0.00 0.00 69 1011.3
20260505113506 16 205 0.0 4.8 0.00 0.00 0.00 70 1011.3
20260505113018 16 244 1.6 4.8 0.00 0.00 0.00 70 1011.2
20260505112507 15 236 0.0 3.2 0.00 0.00 0.00 71 1011.2
20260505112007 15 254 1.6 6.4 0.00 0.00 0.00 71 1011.1
20260505111521 15 231 1.6 6.4 0.00 0.00 0.00 71 1011.0
20260505111007 15 223 0.0 4.8 0.00 0.00 0.00 72 1011.0
20260505110507 15 243 0.0 6.4 0.00 0.00 0.00 73 1011.0
20260505102006 15 266 1.6 3.2 0.00 0.00 0.00 71 1010.8
20260505101521 15 273 0.0 3.2 0.00 0.00 0.00 70 1010.7
20260505101009 15 223 0.0 4.8 0.00 0.00 0.00 70 1010.7
20260505100508 15 261 0.0 4.8 0.00 0.00 0.00 69 1010.7
20260505100030 15 234 0.0 4.8 0.00 0.00 0.00 69 1010.6
20260505095508 16 304 0.0 9.7 0.00 0.00 0.00 69 1010.5
20260505095010 16 248 1.6 9.7 0.00 0.00 0.00 69 1010.4
20260505094529 16 288 1.6 11.3 0.00 0.00 0.00 69 1010.4
20260505094010 16 303 0.0 11.3 0.00 0.00 0.00 69 1010.4
20260505093511 15 254 0.0 4.8 0.00 0.00 0.00 69 1010.4
20260505093027 15 257 0.0 6.4 0.00 0.00 0.00 70 1010.4
20260505092512 15 131 3.2 11.3 0.00 0.00 0.00 70 1010.4
20260505092004 15 217 3.2 11.3 0.00 0.00 0.00 71 1010.3
20260505091506 15 105 0.0 9.7 0.00 0.00 0.00 72 1010.4
20260505091006 15 127 0.0 8.0 0.00 0.00 0.00 72 1010.4
20260505090502 15 276 1.6 8.0 0.00 0.00 0.00 73 1010.4
20260505090008 14 221 1.6 6.4 0.00 0.00 0.00 73 1010.4
20260505085504 14 281 0.0 3.2 0.00 0.00 0.00 72 1010.4
20260505085004 14 272 0.0 4.8 0.00 0.00 0.00 72 1010.4
20260505084504 15 232 1.6 4.8 0.00 0.00 0.00 72 1010.5
20260505084007 15 236 0.0 3.2 0.00 0.00 0.00 71 1010.6
20260505083505 15 246 0.0 3.2 0.00 0.00 0.00 71 1010.6
20260505083010 15 246 0.0 3.2 0.00 0.00 0.00 71 1010.4
20260505082503 15 263 0.0 3.2 0.00 0.00 0.00 70 1010.4
20260505082004 15 255 0.0 4.8 0.00 0.00 0.00 70 1010.3
20260505081506 15 251 0.0 4.8 0.00 0.00 0.00 70 1010.3
20260505081003 15 283 0.0 3.2 0.00 0.00 0.00 70 1010.3
20260505080507 15 239 0.0 3.2 0.00 0.00 0.00 70 1010.3
20260505080006 15 236 0.0 3.2 0.00 0.00 0.00 69 1010.4
20260505075503 15 264 0.0 4.8 0.00 0.00 0.00 69 1010.4
20260505075003 15 229 0.0 4.8 0.00 0.00 0.00 69 1010.5
20260505074505 15 225 0.0 3.2 0.00 0.00 0.00 69 1010.5
20260505074005 15 242 0.0 6.4 0.00 0.00 0.00 69 1010.6
20260505073505 15 200 1.6 6.4 0.00 0.00 0.00 69 1010.6
20260505073013 15 302 1.6 6.4 0.00 0.00 0.00 69 1010.6
20260505072502 15 226 0.0 6.4 0.00 0.00 0.00 69 1010.4
20260505072003 15 279 1.6 4.8 0.00 0.00 0.00 69 1010.5
20260505071509 15 273 0.0 3.2 0.00 0.00 0.00 68 1010.5
20260505071005 15 254 0.0 3.2 0.00 0.00 0.00 68 1010.4
20260505070503 15 277 0.0 8.0 0.00 0.00 0.00 68 1010.4
20260505070008 15 238 0.0 8.0 0.00 0.00 0.00 67 1010.4
20260505065503 15 281 1.6 8.0 0.00 0.00 0.00 68 1010.5
20260505065003 15 262 1.6 3.2 0.00 0.00 0.00 68 1010.3
20260505064508 15 147 0.0 3.2 0.00 0.00 0.00 68 1010.4
20260505064007 15 252 0.0 8.0 0.00 0.00 0.00 67 1010.3
20260505063506 15 271 0.0 8.0 0.00 0.00 0.00 67 1010.4
20260505063005 15 248 3.2 8.0 0.00 0.00 0.00 67 1010.2
20260505062504 15 254 3.2 12.9 0.00 0.00 0.00 66 1010.3
20260505062004 15 308 1.6 12.9 0.00 0.00 0.00 66 1010.3
20260505061515 15 230 0.0 6.4 0.00 0.00 0.00 67 1010.4
20260505061003 15 82 1.6 6.4 0.00 0.00 0.00 66 1010.4
20260505060509 15 212 1.6 6.4 0.00 0.00 0.00 66 1010.4
20260505060017 15 269 1.6 8.0 0.00 0.00 0.00 66 1010.3
20260505055505 15 152 1.6 11.3 0.00 0.00 0.00 66 1010.4
20260505055007 16 171 3.2 11.3 0.00 0.00 0.00 65 1010.4
20260505054511 16 240 1.6 9.7 0.00 0.00 0.00 65 1010.4
20260505054007 16 259 1.6 11.3 0.00 0.00 0.00 64 1010.5
20260505053507 16 251 1.6 11.3 0.00 0.00 0.00 65 1010.4
20260505053013 16 232 3.2 8.0 0.00 0.00 0.00 64 1010.4
20260505052508 16 260 1.6 6.4 0.00 0.00 0.00 64 1010.4
20260505052003 16 95 1.6 6.4 0.00 0.00 0.00 64 1010.4
20260505051509 16 102 1.6 6.4 0.00 0.00 0.00 64 1010.5
20260505051005 16 352 1.6 6.4 0.00 0.00 0.00 64 1010.6
20260505050509 16 263 1.6 8.0 0.00 0.00 0.00 64 1010.7
20260505041507 16 283 1.6 11.3 0.00 0.00 0.00 60 1010.4
20260505041004 16 103 1.6 6.4 0.00 0.00 0.00 60 1010.4
20260505040507 16 176 1.6 6.4 0.00 0.00 0.00 60 1010.3
20260505040011 16 220 1.6 9.7 0.00 0.00 0.00 59 1010.3
20260505035504 16 95 1.6 9.7 0.00 0.00 0.00 58 1010.3
20260505035005 16 193 1.6 6.4 0.00 0.00 0.00 58 1010.4
20260505034512 16 183 1.6 6.4 0.00 0.00 0.00 55 1010.3
20260505034008 16 99 1.6 6.4 0.00 0.00 0.00 55 1010.3
20260505033507 17 241 0.0 11.3 0.00 0.00 0.00 55 1010.4
20260505033014 17 342 1.6 11.3 0.00 0.00 0.00 54 1010.4
20260505032504 17 193 0.0 6.4 0.00 0.00 0.00 52 1010.4
20260505032005 17 53 0.0 8.0 0.00 0.00 0.00 51 1010.5
20260505031511 17 262 0.0 8.0 0.00 0.00 0.00 50 1010.5
20260505031009 17 161 1.6 6.4 0.00 0.00 0.00 49 1010.5
20260505030504 17 163 0.0 6.4 0.00 0.00 0.00 49 1010.4
20260505030009 17 156 1.6 4.8 0.00 0.00 0.00 49 1010.6
20260505025505 17 153 1.6 6.4 0.00 0.00 0.00 1010.6
20260505025007 17 182 1.6 6.4 0.00 0.00 0.00 1010.7
20260505024513 17 265 1.6 3.2 0.00 0.00 0.00 1010.8
20260505024004 17 159 1.6 11.3 0.00 0.00 0.00 1010.8
20260505023504 17 13 1.6 11.3 0.00 0.00 0.00 49 1010.8
20260505023012 17 117 1.6 6.4 0.00 0.00 0.00 49 1010.8
20260505022504 17 261 0.0 6.4 0.00 0.00 0.00 49 1010.8
20260505022007 17 287 0.0 9.7 0.00 0.00 0.00 49 1010.9
20260505021516 17 124 1.6 9.7 0.00 0.00 0.00 49 1010.8
20260505021006 17 147 1.6 9.7 0.00 0.00 0.00 1010.8
20260505020507 17 286 1.6 9.7 0.00 0.00 0.00 1010.8
20260505020018 17 277 0.0 3.2 0.00 0.00 0.00 1010.7
20260505015507 17 289 0.0 6.4 0.00 0.00 0.00 1010.8
20260505015005 17 131 0.0 6.4 0.00 0.00 0.00 1010.7
20260505014510 17 106 0.0 4.8 0.00 0.00 0.00 1010.7
20260505014004 17 169 0.0 4.8 0.00 0.00 0.00 1010.7
20260505013505 17 265 1.6 6.4 0.00 0.00 0.00 1010.8
20260505013018 17 246 0.0 6.4 0.00 0.00 0.00 50 1010.7
20260505012509 17 102 0.0 3.2 0.00 0.00 0.00 50 1010.7
20260505012008 17 236 0.0 4.8 0.00 0.00 0.00 50 1010.6
20260505011521 17 118 0.0 4.8 0.00 0.00 0.00 50 1010.6
20260505011011 17 76 0.0 3.2 0.00 0.00 0.00 49 1010.5
20260505010504 17 86 0.0 3.2 0.00 0.00 0.00 49 1010.4
20260505010014 17 276 1.6 3.2 0.00 0.00 0.00 49 1010.3
20260505005507 17 80 0.0 4.8 0.00 0.00 0.00 48 1010.3
20260505005006 17 245 0.0 4.8 0.00 0.00 0.00 47 1010.1
20260505004513 17 117 0.0 3.2 0.00 0.00 0.00 48 1010.0
20260505004004 17 171 0.0 3.2 0.00 0.00 0.00 46 1009.9
20260505003506 18 171 0.0 3.2 0.00 0.00 0.00 45 1010.0
20260505003016 18 256 0.0 3.2 0.00 0.00 0.00 47 1009.9
20260505002510 18 265 0.0 3.2 0.00 0.00 0.00 46 1009.9
20260505002005 18 260 0.0 3.2 0.00 0.00 0.00 45 1009.8
20260505001515 18 260 0.0 3.2 0.00 0.00 0.00 44 1009.8
20260505001006 18 250 0.0 3.2 0.00 0.00 0.00 44 1009.9
20260505000506 19 123 0.0 3.2 0.00 0.00 0.00 42 1009.9
20260505000027 19 180 0.0 3.2 0.00 0.00 0.00 42 1009.9
20260504235507 20 199 0.0 12.9 0.00 0.00 0.00 42 1009.9
20260504235005 20 252 1.6 12.9 0.00 0.00 0.00 40 1009.9
20260504234516 20 256 0.0 8.0 0.00 0.00 0.00 40 1009.9
20260504234008 20 259 1.6 9.7 0.00 0.00 0.00 41 1009.7
20260504233508 20 140 1.6 8.0 0.00 0.00 0.00 40 1009.6
20260504233012 20 215 1.6 11.3 0.00 0.00 0.00 41 1009.6
20260504232506 20 225 0.0 11.3 0.00 0.00 0.00 39 1009.6
20260504232007 20 267 3.2 14.5 0.00 0.00 0.00 40 1009.6
20260504231515 20 233 0.0 14.5 0.00 0.00 0.00 39 1009.6
20260504231007 20 268 0.0 9.7 0.00 0.00 0.00 40 1009.6
20260504230507 20 243 1.6 14.5 0.00 0.00 0.00 39 1009.6
20260504230020 21 175 3.2 14.5 0.00 0.00 0.00 38 1009.6
20260504225505 21 248 1.6 8.0 0.00 0.00 0.00 39 1009.5
20260504225006 21 65 1.6 11.3 0.00 0.00 0.00 38 1009.5
20260504224515 21 259 4.8 11.3 0.00 0.00 0.00 36 1009.6
20260504224008 21 135 3.2 16.1 0.00 0.00 0.00 38 1009.6
20260504223505 21 296 4.8 16.1 0.00 0.00 0.00 36 1009.6
20260504223010 21 271 3.2 11.3 0.00 0.00 0.00 36 1009.6
20260504222504 21 243 3.2 20.9 0.00 0.00 0.00 37 1009.7
20260504222009 21 311 1.6 20.9 0.00 0.00 0.00 36 1009.7
20260504221518 21 267 3.2 8.0 0.00 0.00 0.00 36 1009.7
20260504221007 21 279 1.6 14.5 0.00 0.00 0.00 37 1009.6
20260504220507 21 82 3.2 14.5 0.00 0.00 0.00 36 1009.7
20260504220015 21 247 4.8 11.3 0.00 0.00 0.00 35 1009.7
20260504215507 21 214 3.2 17.7 0.00 0.00 0.00 36 1009.9
20260504215011 22 94 1.6 17.7 0.00 0.00 0.00 36 1009.9
20260504214516 22 281 1.6 11.3 0.00 0.00 0.00 34 1009.9
20260504214005 22 275 1.6 14.5 0.00 0.00 0.00 34 1010.0
20260504213504 22 295 6.4 16.1 0.00 0.00 0.00 35 1010.0
20260504213026 23 189 3.2 16.1 0.00 0.00 0.00 36 1009.9
20260504212505 23 229 1.6 12.9 0.00 0.00 0.00 36 1010.0
20260504212009 23 238 3.2 12.9 0.00 0.00 0.00 35 1010.0
20260504211517 23 253 3.2 9.7 0.00 0.00 0.00 34 1009.8
20260504211007 23 293 3.2 14.5 0.00 0.00 0.00 33 1009.8
20260504210508 23 258 4.8 14.5 0.00 0.00 0.00 32 1009.8
20260504210019 23 238 1.6 12.9 0.00 0.00 0.00 35 1009.8
20260504205507 23 140 3.2 12.9 0.00 0.00 0.00 32 1009.9
20260504205006 23 236 6.4 11.3 0.00 0.00 0.00 32 1009.8
20260504204519 23 271 4.8 16.1 0.00 0.00 0.00 33 1009.8
20260504204009 23 248 3.2 16.1 0.00 0.00 0.00 33 1009.9
20260504203513 23 240 4.8 17.7 0.00 0.00 0.00 34 1009.8
20260504203008 23 210 6.4 17.7 0.00 0.00 0.00 32 1010.0
20260504202504 23 259 4.8 14.5 0.00 0.00 0.00 33 1010.1
20260504202004 23 202 4.8 17.7 0.00 0.00 0.00 33 1010.1
20260504201517 23 277 3.2 17.7 0.00 0.00 0.00 33 1010.0
20260504201010 23 308 3.2 11.3 0.00 0.00 0.00 32 1010.0
20260504200507 23 263 3.2 12.9 0.00 0.00 0.00 33 1010.0
20260504200016 23 126 3.2 12.9 0.00 0.00 0.00 32 1010.0
20260504195506 23 267 3.2 11.3 0.00 0.00 0.00 33 1010.2
20260504195011 23 321 1.6 12.9 0.00 0.00 0.00 35 1010.2
20260504194519 23 105 3.2 12.9 0.00 0.00 0.00 34 1010.2
20260504194008 23 184 3.2 14.5 0.00 0.00 0.00 31 1010.2
20260504193508 23 246 3.2 14.5 0.00 0.00 0.00 31 1010.3
20260504193021 23 254 4.8 12.9 0.00 0.00 0.00 33 1010.3
20260504192503 23 263 4.8 11.3 0.00 0.00 0.00 34 1010.3
20260504192004 23 109 3.2 11.3 0.00 0.00 0.00 35 1010.4
20260504191507 23 254 3.2 14.5 0.00 0.00 0.00 31 1010.4
20260504191003 23 264 4.8 14.5 0.00 0.00 0.00 32 1010.5
20260504190508 23 200 1.6 14.5 0.00 0.00 0.00 34 1010.6
20260504190014 23 209 4.8 14.5 0.00 0.00 0.00 34 1010.6
20260504185510 23 204 3.2 14.5 0.00 0.00 0.00 33 1010.8
20260504185011 22 148 4.8 14.5 0.00 0.00 0.00 35 1010.9
20260504184518 23 152 1.6 12.9 0.00 0.00 0.00 32 1010.9
20260504184007 23 216 3.2 17.7 0.00 0.00 0.00 36 1010.9
20260504183511 22 242 1.6 17.7 0.00 0.00 0.00 35 1010.9
20260504183024 22 188 3.2 12.9 0.00 0.00 0.00 35 1010.9
20260504182509 22 282 4.8 12.9 0.00 0.00 0.00 35 1011.0
20260504182010 22 191 4.8 12.9 0.00 0.00 0.00 33 1011.1
20260504181508 22 250 3.2 8.0 0.00 0.00 0.00 33 1011.1
20260504181004 22 229 1.6 11.3 0.00 0.00 0.00 38 1011.2
20260504180507 22 138 1.6 16.1 0.00 0.00 0.00 40 1011.3
20260504180010 22 235 4.8 16.1 0.00 0.00 0.00 35 1011.4
20260504175505 22 221 3.2 12.9 0.00 0.00 0.00 37 1011.3
20260504175009 22 269 3.2 22.5 0.00 0.00 0.00 35 1011.6
20260504174514 22 134 4.8 22.5 0.00 0.00 0.00 35 1011.7
20260504174009 22 263 6.4 22.5 0.00 0.00 0.00 33 1011.7
20260504173513 22 299 3.2 9.7 0.00 0.00 0.00 38 1011.8
20260504173033 21 260 3.2 11.3 0.00 0.00 0.00 38 1011.9
20260504172508 21 267 4.8 14.5 0.00 0.00 0.00 36 1011.9
20260504172009 21 231 3.2 14.5 0.00 0.00 0.00 35 1012.0
20260504171523 21 257 6.4 12.9 0.00 0.00 0.00 32 1012.2
20260504171009 21 185 4.8 12.9 0.00 0.00 0.00 35 1012.2
20260504170505 21 317 3.2 11.3 0.00 0.00 0.00 38 1012.2
20260504151013 19 311 1.6 9.7 0.00 0.00 0.00 46 1013.7
20260504150511 19 290 3.2 14.5 0.00 0.00 0.00 43 1013.8
20260504141014 17 235 3.2 11.3 0.00 0.00 0.00 56 1013.9
20260504140508 17 228 1.6 12.9 0.00 0.00 0.00 54 1013.9